Florence, SC

7:24 AM EDT on June 19, 2018 (GMT -0400)
Florence Regional

Weather History for KFLO - June, 2018

Change the Weather History Date:

Thursday, June 14, 2018

  Actual Average Record
Temperature  
Mean Temperature 84 °F 78 °F  
Max Temperature 94 °F 88 °F 102 °F (1958)
Min Temperature 73 °F 68 °F 56 °F (1980)
Degree Days  
Heating Degree Days 0 0  
Month to date heating degree days 0 0  
Since 1 June heating degree days 0 0  
Since 1 July heating degree days 2426 2523  
Cooling Degree Days 19 13  
Month to date cooling degree days 208 165  
Year to date cooling degree days 667 472  
Since 1 June cooling degree days 208 165  
Growing Degree Days 33 (Base 50)    
Moisture  
Dew Point 72 °F    
Average Humidity 70    
Maximum Humidity 94    
Minimum Humidity 46    
Precipitation  
Precipitation T in 0.15 in 2.23 in (1948)
Month to date precipitation 2.21 2.18  
Year to date precipitation 18.24 17.54  
Sea Level Pressure  
Sea Level Pressure 29.96 in    
Wind  
Wind Speed 6 mph (WSW)    
Max Wind Speed 15 mph    
Max Gust Speed 18 mph    
Visibility 10 miles    
Events Thunderstorm    
T = Trace of Precipitation, MM = Missing Value Source: NWS Daily Summary

Daily Weather History Graph

Daily Weather History Graph

Search for Another Location

Airport or City:

Astronomy

Jun. 14, 2018 Rise Set
Actual Time 6:06 AM EDT 8:31 PM EDT
Civil Twilight 5:37 AM EDT 9:01 PM EDT
Nautical Twilight 5:01 AM EDT 9:37 PM EDT
Astronomical Twilight 4:21 AM EDT 10:16 PM EDT
Moon 6:59 AM EDT (6/14) 9:33 PM EDT (6/14)
Length of Visible Light 15h 23m
Length of Day
14h 25m
New Moon, 1% of the Moon is Illuminated
Jun 14
New Moon
Jun 20
First Quarter
Jun 28
Full
Jul 6
Last Quarter
Jul 12
New

Hourly Weather History & Observations

Time (EDT) Temp. Heat Index Dew Point Humidity Pressure Visibility Wind Dir Wind Speed Gust Speed Precip Events Conditions
12:53 AM 75.9 °F - 72.0 °F 87% 30.00 in 10.0 mi SSW 6.9 mph - N/A   Clear
2:53 AM 73.9 °F - 71.1 °F 91% 29.99 in 10.0 mi SW 6.9 mph - N/A   Clear
3:53 AM 73.0 °F - 71.1 °F 93% 29.98 in 10.0 mi SSW 6.9 mph - N/A   Clear
4:53 AM 73.0 °F - 71.1 °F 93% 29.98 in 9.0 mi SW 5.8 mph - N/A   Clear
5:53 AM 73.0 °F - 71.1 °F 93% 29.99 in 9.0 mi WSW 4.6 mph - N/A   Partly Cloudy
6:53 AM 73.0 °F - 71.1 °F 93% 29.99 in 9.0 mi WSW 4.6 mph - N/A   Clear
7:53 AM 75.9 °F - 72.0 °F 87% 29.99 in 10.0 mi West 5.8 mph - N/A   Clear
8:53 AM 80.1 °F 84.2 °F 73.0 °F 79% 30.00 in 10.0 mi WSW 5.8 mph - N/A   Scattered Clouds
9:53 AM 84.0 °F 89.6 °F 72.0 °F 67% 30.00 in 10.0 mi Variable 4.6 mph - N/A   Clear
10:53 AM 86.0 °F 92.2 °F 72.0 °F 63% 30.00 in 10.0 mi West 9.2 mph - N/A   Clear
11:53 AM 88.0 °F 93.8 °F 71.1 °F 57% 29.99 in 10.0 mi West 3.5 mph - N/A   Partly Cloudy
12:53 PM 89.1 °F 96.0 °F 72.0 °F 57% 29.98 in 10.0 mi SW 8.1 mph - N/A   Mostly Cloudy
1:53 PM 91.0 °F 97.6 °F 71.1 °F 52% 29.95 in 10.0 mi NW 9.2 mph - N/A   Partly Cloudy
2:53 PM 91.0 °F 95.6 °F 69.1 °F 48% 29.92 in 10.0 mi WSW 10.4 mph - N/A   Partly Cloudy
3:53 PM 93.0 °F 99.0 °F 70.0 °F 47% 29.91 in 10.0 mi WNW 5.8 mph - N/A   Partly Cloudy
4:53 PM 91.9 °F 98.4 °F 71.1 °F 50% 29.89 in 10.0 mi WSW 5.8 mph - N/A   Partly Cloudy
5:48 PM 91.4 °F 98.4 °F 71.6 °F 52% 29.91 in 10.0 mi SSW 5.8 mph - N/A Thunderstorm Clear
5:53 PM 90.0 °F 96.9 °F 72.0 °F 55% 29.91 in 10.0 mi South 4.6 mph - N/A Thunderstorm Clear
6:21 PM 88.0 °F 94.7 °F 72.0 °F 59% 29.91 in 10.0 mi SW 11.5 mph - N/A Thunderstorm Scattered Clouds
6:48 PM 84.2 °F 88.4 °F 69.8 °F 62% 29.94 in 10.0 mi West 8.1 mph - N/A Thunderstorm Thunderstorm
6:53 PM 84.0 °F 87.8 °F 69.1 °F 61% 29.94 in 10.0 mi West 5.8 mph - N/A Thunderstorm Thunderstorm
7:14 PM 80.1 °F 83.6 °F 71.1 °F 74% 29.94 in 10.0 mi SSW 9.2 mph - 0.00 in   Mostly Cloudy
7:53 PM 79.0 °F - 72.0 °F 79% 29.93 in 10.0 mi SW 4.6 mph - 0.00 in   Clear
8:53 PM 78.1 °F - 73.9 °F 87% 29.95 in 10.0 mi SSW 5.8 mph - N/A   Clear
9:53 PM 78.1 °F - 73.9 °F 87% 29.95 in 10.0 mi SW 10.4 mph - N/A   Clear
10:53 PM 77.0 °F - 73.0 °F 88% 29.95 in 10.0 mi SW 6.9 mph - N/A   Clear
11:53 PM 75.9 °F - 73.0 °F 91% 29.95 in 10.0 mi WSW 4.6 mph - N/A   Clear